QPF
0.00 0.00 0.00 0.00 0.01 0.00 0.00 0.01 0.00 0.00 0.01 0.02 0.02 0.01 0.00 0.00 0.00 0.00 0.01 0.00 0.00 0.00 0.00 0.01 0.01 0.02 0.01 0.01 0.01 0.02 0.06 0.06 0.04 0.01 0.01 0.00 0.01 0.04 0.12 0.13 0.03 0.03 0.10
0.00 0.00 0.01 0.01 0.01 0.00 0.01 0.01 0.01 0.01 0.02 0.01 0.02 0.01 0.01 0.01 0.01 0.01 0.00 0.00 0.00 0.00 0.00 0.01 0.01 0.02 0.02 0.02 0.03 0.04 0.05 0.06 0.06 0.06 0.03 0.01 0.04 0.07 0.09 0.06 0.02 0.03 0.08
0.00 0.00 0.01 0.01 0.01 0.01 0.01 0.01 0.02 0.02 0.01 0.01 0.04 0.03 0.03 0.02 0.00 0.00 0.00 0.00 0.00 0.00 0.01 0.03 0.04 0.02 0.01 0.04 0.05 0.05 0.06 0.08 0.09 0.09 0.03 0.01 0.03 0.07 0.11 0.08 0.03 0.04 0.04
0.00 0.00 0.00 0.01 0.03 0.05 0.03 0.01 0.02 0.02 0.01 0.02 0.04 0.04 0.04 0.02 0.01 0.01 0.00 0.00 0.00 0.00 0.01 0.03 0.06 0.04 0.01 0.02 0.03 0.02 0.03 0.07 0.12 0.06 0.01 0.00 0.01 0.03 0.13 0.16 0.05 0.04 0.03
0.01 0.01 0.03 0.05 0.11 0.11 0.06 0.05 0.04 0.03 0.03 0.04 0.03 0.04 0.05 0.03 0.04 0.02 0.00 0.01 0.01 0.01 0.01 0.01 0.03 0.04 0.01 0.02 0.03 0.02 0.04 0.12 0.09 0.01 0.00 0.00 0.01 0.07 0.13 0.18 0.10 0.05 0.02
0.02 0.04 0.07 0.09 0.14 0.12 0.06 0.06 0.05 0.05 0.05 0.03 0.02 0.03 0.04 0.03 0.04 0.01 0.00 0.03 0.02 0.01 0.00 0.01 0.01 0.01 0.00 0.01 0.03 0.03 0.05 0.08 0.02 0.01 0.00 0.00 0.02 0.12 0.12 0.08 0.06 0.04 0.02
0.02 0.04 0.08 0.11 0.12 0.09 0.05 0.06 0.08 0.07 0.05 0.02 0.01 0.03 0.03 0.03 0.03 0.00 0.00 0.01 0.02 0.02 0.01 0.01 0.01 0.00 0.00 0.00 0.02 0.03 0.03 0.02 0.00 0.00 0.01 0.02 0.05 0.12 0.09 0.07 0.09 0.05 0.02
0.02 0.03 0.09 0.10 0.08 0.08 0.06 0.08 0.09 0.11 0.06 0.01 0.01 0.03 0.02 0.02 0.02 0.01 0.00 0.01 0.01 0.00 0.00 0.00 0.01 0.00 0.00 0.00 0.00 0.01 0.01 0.01 0.00 0.00 0.01 0.03 0.06 0.08 0.08 0.08 0.11 0.07 0.06
0.04 0.03 0.08 0.07 0.05 0.06 0.08 0.07 0.08 0.13 0.06 0.01 0.01 0.04 0.04 0.02 0.02 0.02 0.00 0.00 0.00 0.00 0.00 0.00 0.01 0.00 0.00 0.00 0.00 0.00 0.01 0.01 0.00 0.00 0.00 0.04 0.09 0.09 0.14 0.13 0.09 0.07 0.07
0.03 0.01 0.01 0.02 0.03 0.05 0.04 0.05 0.07 0.16 0.10 0.03 0.04 0.04 0.05 0.03 0.02 0.02 0.00 0.00 0.01 0.01 0.00 0.00 0.00 0.00 0.00 0.00 0.00 0.01 0.01 0.00 0.00 0.00 0.00 0.02 0.06 0.04 0.06 0.08 0.06 0.07 0.06
0.00 0.00 0.00 0.00 0.01 0.01 0.02 0.03 0.08 0.13 0.12 0.06 0.05 0.04 0.04 0.02 0.05 0.02 0.00 0.00 0.01 0.00 0.00 0.00 0.00 0.00 0.00 0.00 0.00 0.01 0.00 0.00 0.00 0.00 0.00 0.01 0.01 0.01 0.01 0.01 0.01 0.01 0.02
0.00 0.00 0.00 0.00 0.01 0.00 0.00 0.01 0.02 0.03 0.03 0.01 0.01 0.01 0.01 0.03 0.04 0.01 0.00 0.00 0.00 0.00 0.00 0.00 0.00 0.00 0.00 0.00 0.00 0.00 0.00 0.00 0.00 0.00 0.00 0.00 0.00 0.00 0.00 0.00 0.00 0.00 0.00
0.00 0.00 0.00 0.00 0.00 0.00 0.00 0.01 0.01 0.01 0.00 0.00 0.00 0.00 0.01 0.02 0.01 0.00 0.00 0.00 0.00 0.00 0.00 0.00 0.00 0.00 0.00 0.00 0.00 0.00 0.00 0.00 0.00 0.00 0.00 0.00 0.00 0.00 0.00 0.00 0.00 0.00 0.00
0.00 0.00 0.00 0.00 0.00 0.00 0.00 0.02 0.02 0.05 0.04 0.00 0.00 0.00 0.00 0.01 0.00 0.00 0.00 0.00 0.00 0.01 0.00 0.00 0.00 0.00 0.00 0.00 0.00 0.00 0.00 0.00 0.00 0.00 0.00 0.01 0.01 0.00 0.00 0.01 0.00 0.00 0.00
0.00 0.00 0.00 0.00 0.00 0.00 0.00 0.00 0.02 0.09 0.07 0.02 0.00 0.00 0.00 0.01 0.00 0.00 0.00 0.00 0.00 0.01 0.00 0.00 0.00 0.00 0.00 0.01 0.01 0.00 0.00 0.00 0.00 0.00 0.00 0.02 0.03 0.03 0.02 0.02 0.02 0.00 0.01
0.00 0.00 0.00 0.00 0.00 0.00 0.00 0.00 0.00 0.01 0.01 0.01 0.00 0.00 0.00 0.01 0.00 0.00 0.00 0.00 0.00 0.00 0.01 0.00 0.00 0.00 0.00 0.00 0.01 0.00 0.00 0.00 0.00 0.00 0.00 0.01 0.04 0.08 0.08 0.09 0.07 0.03 0.03
0.00 0.00 0.00 0.00 0.00 0.00 0.00 0.00 0.00 0.00 0.00 0.00 0.00 0.00 0.00 0.01 0.01 0.00 0.00 0.00 0.02 0.02 0.02 0.01 0.00 0.00 0.00 0.00 0.00 0.00 0.00 0.00 0.00 0.00 0.00 0.00 0.02 0.10 0.16 0.18 0.16 0.10 0.07
0.00 0.00 0.00 0.00 0.00 0.00 0.00 0.00 0.00 0.00 0.00 0.00 0.00 0.01 0.02 0.04 0.04 0.02 0.03 0.05 0.05 0.03 0.03 0.02 0.00 0.00 0.00 0.00 0.00 0.00 0.00 0.00 0.00 0.00 0.00 0.00 0.00 0.04 0.10 0.16 0.21 0.22 0.16
0.00 0.00 0.00 0.00 0.00 0.00 0.00 0.00 0.00 0.00 0.00 0.01 0.02 0.03 0.09 0.13 0.10 0.05 0.06 0.10 0.10 0.08 0.05 0.03 0.02 0.01 0.00 0.00 0.00 0.00 0.00 0.00 0.00 0.00 0.00 0.00 0.00 0.00 0.01 0.02 0.08 0.07 0.07
0.01 0.00 0.00 0.00 0.00 0.00 0.00 0.00 0.00 0.00 0.01 0.02 0.04 0.12 0.28 0.26 0.14 0.06 0.05 0.07 0.10 0.12 0.11 0.09 0.04 0.01 0.00 0.00 0.00 0.00 0.00 0.00 0.00 0.00 0.00 0.00 0.00 0.00 0.00 0.00 0.00 0.00 0.04
0.01 0.00 0.00 0.00 0.01 0.01 0.00 0.00 0.00 0.00 0.00 0.01 0.03 0.07 0.15 0.23 0.14 0.08 0.07 0.06 0.06 0.09 0.13 0.15 0.07 0.03 0.02 0.01 0.01 0.00 0.00 0.00 0.00 0.00 0.00 0.00 0.00 0.00 0.00 0.00 0.00 0.00 0.00
0.00 0.00 0.00 0.01 0.03 0.03 0.03 0.03 0.02 0.01 0.00 0.00 0.01 0.04 0.08 0.14 0.13 0.12 0.16 0.14 0.09 0.09 0.12 0.18 0.13 0.09 0.06 0.06 0.08 0.06 0.02 0.01 0.00 0.00 0.00 0.00 0.00 0.00 0.00 0.00 0.00 0.00 0.00
0.00 0.02 0.05 0.11 0.16 0.17 0.17 0.16 0.08 0.03 0.01 0.00 0.01 0.03 0.08 0.15 0.13 0.12 0.18 0.16 0.10 0.08 0.10 0.13 0.15 0.21 0.22 0.17 0.20 0.22 0.13 0.06 0.03 0.01 0.00 0.00 0.00 0.00 0.00 0.00 0.00 0.00 0.00
0.08 0.14 0.23 0.30 0.36 0.33 0.30 0.24 0.13 0.06 0.03 0.02 0.04 0.07 0.07 0.09 0.08 0.04 0.05 0.07 0.06 0.06 0.06 0.09 0.18 0.32 0.43 0.40 0.31 0.28 0.21 0.12 0.06 0.02 0.00 0.00 0.00 0.00 0.00 0.00 0.00 0.00 0.00
0.22 0.33 0.41 0.52 0.49 0.43 0.33 0.22 0.16 0.11 0.07 0.05 0.07 0.12 0.12 0.09 0.05 0.03 0.03 0.04 0.06 0.06 0.04 0.06 0.11 0.21 0.37 0.48 0.43 0.32 0.23 0.16 0.08 0.03 0.01 0.00 0.00 0.00 0.00 0.00 0.00 0.00 0.00
0.41 0.60 0.65 0.63 0.56 0.42 0.28 0.21 0.18 0.13 0.10 0.09 0.11 0.16 0.15 0.08 0.03 0.02 0.03 0.06 0.06 0.04 0.02 0.03 0.07 0.09 0.18 0.27 0.28 0.20 0.15 0.16 0.16 0.12 0.08 0.05 0.01 0.00 0.00 0.00 0.00 0.00 0.00
MSLP
1011.68 1011.29 1011.08 1011.07 1011.22 1011.48 1011.78 1012.06 1012.28 1012.42 1012.51 1012.58 1012.66 1012.79 1012.96 1013.18 1013.41 1013.62 1013.79 1013.90 1013.95 1013.94 1013.91 1013.87 1013.85 1013.86 1013.90 1013.98 1014.08 1014.20 1014.32 1014.45 1014.56 1014.65 1014.70 1014.71 1014.68 1014.61 1014.53 1014.44 1014.39 1014.38 1014.44
1011.49 1011.20 1011.06 1011.10 1011.27 1011.55 1011.85 1012.13 1012.36 1012.52 1012.63 1012.72 1012.83 1012.99 1013.19 1013.43 1013.68 1013.91 1014.09 1014.21 1014.26 1014.26 1014.22 1014.17 1014.13 1014.11 1014.11 1014.15 1014.22 1014.31 1014.43 1014.55 1014.66 1014.76 1014.82 1014.83 1014.81 1014.74 1014.64 1014.56 1014.50 1014.49 1014.54
1011.21 1011.00 1010.94 1011.03 1011.25 1011.56 1011.89 1012.20 1012.45 1012.64 1012.78 1012.90 1013.03 1013.20 1013.41 1013.65 1013.89 1014.11 1014.29 1014.41 1014.46 1014.46 1014.43 1014.39 1014.34 1014.31 1014.30 1014.31 1014.36 1014.43 1014.53 1014.64 1014.76 1014.86 1014.93 1014.96 1014.94 1014.88 1014.80 1014.72 1014.66 1014.66 1014.70
1010.90 1010.77 1010.77 1010.93 1011.21 1011.56 1011.94 1012.28 1012.57 1012.79 1012.95 1013.10 1013.24 1013.41 1013.61 1013.82 1014.04 1014.24 1014.40 1014.51 1014.56 1014.58 1014.56 1014.54 1014.51 1014.49 1014.48 1014.49 1014.53 1014.59 1014.67 1014.77 1014.88 1014.98 1015.06 1015.10 1015.09 1015.05 1014.99 1014.93 1014.88 1014.88 1014.93
1010.63 1010.56 1010.64 1010.85 1011.19 1011.60 1012.01 1012.40 1012.71 1012.96 1013.14 1013.30 1013.44 1013.60 1013.78 1013.97 1014.15 1014.32 1014.46 1014.55 1014.61 1014.64 1014.66 1014.67 1014.67 1014.68 1014.70 1014.72 1014.76 1014.81 1014.87 1014.95 1015.04 1015.13 1015.21 1015.26 1015.27 1015.25 1015.21 1015.17 1015.15 1015.15 1015.20
1010.48 1010.47 1010.60 1010.87 1011.25 1011.69 1012.14 1012.54 1012.87 1013.13 1013.32 1013.47 1013.62 1013.77 1013.93 1014.10 1014.26 1014.40 1014.52 1014.61 1014.67 1014.73 1014.78 1014.83 1014.88 1014.94 1014.98 1015.03 1015.06 1015.10 1015.14 1015.20 1015.26 1015.33 1015.39 1015.43 1015.46 1015.46 1015.44 1015.42 1015.42 1015.43 1015.48
1010.48 1010.51 1010.68 1010.99 1011.40 1011.86 1012.30 1012.70 1013.02 1013.27 1013.46 1013.61 1013.76 1013.92 1014.08 1014.24 1014.40 1014.53 1014.64 1014.73 1014.80 1014.87 1014.96 1015.05 1015.15 1015.25 1015.33 1015.40 1015.44 1015.46 1015.48 1015.49 1015.51 1015.54 1015.58 1015.62 1015.64 1015.66 1015.66 1015.66 1015.66 1015.68 1015.72
1010.61 1010.68 1010.89 1011.21 1011.62 1012.06 1012.48 1012.84 1013.13 1013.35 1013.53 1013.70 1013.86 1014.04 1014.23 1014.42 1014.59 1014.74 1014.85 1014.94 1015.02 1015.10 1015.21 1015.34 1015.48 1015.61 1015.73 1015.81 1015.85 1015.86 1015.84 1015.81 1015.78 1015.78 1015.78 1015.79 1015.81 1015.82 1015.83 1015.84 1015.84 1015.86 1015.90
1010.82 1010.93 1011.15 1011.48 1011.87 1012.27 1012.64 1012.94 1013.18 1013.37 1013.54 1013.72 1013.92 1014.15 1014.39 1014.63 1014.84 1015.01 1015.13 1015.23 1015.31 1015.40 1015.51 1015.66 1015.82 1015.98 1016.11 1016.21 1016.25 1016.24 1016.19 1016.12 1016.05 1016.00 1015.97 1015.95 1015.95 1015.96 1015.96 1015.96 1015.96 1015.96 1015.98
1011.04 1011.17 1011.41 1011.74 1012.10 1012.45 1012.74 1012.98 1013.17 1013.33 1013.49 1013.70 1013.95 1014.24 1014.56 1014.86 1015.12 1015.32 1015.46 1015.55 1015.62 1015.70 1015.81 1015.95 1016.12 1016.29 1016.44 1016.55 1016.59 1016.57 1016.50 1016.40 1016.29 1016.20 1016.13 1016.10 1016.08 1016.06 1016.05 1016.03 1016.01 1016.00 1016.00
1011.18 1011.35 1011.61 1011.94 1012.26 1012.56 1012.79 1012.97 1013.10 1013.24 1013.41 1013.64 1013.95 1014.32 1014.71 1015.08 1015.39 1015.62 1015.77 1015.85 1015.90 1015.96 1016.05 1016.18 1016.34 1016.52 1016.68 1016.80 1016.85 1016.83 1016.75 1016.63 1016.50 1016.38 1016.29 1016.23 1016.19 1016.16 1016.13 1016.09 1016.04 1016.00 1015.98
1011.20 1011.42 1011.71 1012.04 1012.35 1012.60 1012.79 1012.92 1013.02 1013.14 1013.32 1013.59 1013.95 1014.38 1014.83 1015.26 1015.61 1015.86 1016.01 1016.08 1016.11 1016.14 1016.20 1016.31 1016.47 1016.65 1016.83 1016.96 1017.02 1017.01 1016.94 1016.82 1016.68 1016.55 1016.45 1016.38 1016.32 1016.27 1016.21 1016.14 1016.07 1016.00 1015.96
1011.11 1011.37 1011.70 1012.04 1012.34 1012.58 1012.75 1012.85 1012.94 1013.06 1013.26 1013.56 1013.96 1014.44 1014.93 1015.38 1015.76 1016.02 1016.16 1016.21 1016.22 1016.23 1016.27 1016.37 1016.53 1016.72 1016.91 1017.06 1017.14 1017.15 1017.09 1016.98 1016.85 1016.73 1016.62 1016.53 1016.46 1016.40 1016.32 1016.23 1016.12 1016.03 1015.97
1010.91 1011.22 1011.58 1011.95 1012.27 1012.52 1012.69 1012.80 1012.90 1013.04 1013.26 1013.58 1014.00 1014.48 1014.99 1015.45 1015.82 1016.07 1016.21 1016.25 1016.25 1016.24 1016.29 1016.39 1016.55 1016.76 1016.97 1017.14 1017.25 1017.28 1017.24 1017.15 1017.03 1016.91 1016.80 1016.72 1016.64 1016.56 1016.46 1016.35 1016.22 1016.11 1016.04
1010.63 1010.97 1011.37 1011.77 1012.13 1012.41 1012.62 1012.77 1012.91 1013.07 1013.30 1013.63 1014.05 1014.52 1015.00 1015.44 1015.80 1016.04 1016.16 1016.21 1016.22 1016.23 1016.29 1016.42 1016.60 1016.83 1017.06 1017.25 1017.38 1017.43 1017.41 1017.34 1017.23 1017.11 1017.01 1016.92 1016.83 1016.74 1016.63 1016.50 1016.36 1016.24 1016.16
1010.29 1010.64 1011.07 1011.51 1011.91 1012.26 1012.53 1012.75 1012.94 1013.14 1013.39 1013.71 1014.10 1014.54 1014.98 1015.38 1015.70 1015.92 1016.06 1016.12 1016.17 1016.22 1016.33 1016.50 1016.72 1016.97 1017.22 1017.43 1017.57 1017.63 1017.62 1017.55 1017.45 1017.34 1017.23 1017.13 1017.04 1016.93 1016.81 1016.67 1016.53 1016.40 1016.32
1009.89 1010.24 1010.68 1011.15 1011.62 1012.04 1012.40 1012.69 1012.95 1013.20 1013.47 1013.79 1014.14 1014.52 1014.90 1015.25 1015.54 1015.76 1015.91 1016.02 1016.12 1016.25 1016.42 1016.64 1016.90 1017.18 1017.45 1017.67 1017.81 1017.87 1017.86 1017.79 1017.69 1017.57 1017.46 1017.36 1017.25 1017.14 1017.00 1016.86 1016.72 1016.59 1016.52
1009.45 1009.77 1010.20 1010.71 1011.23 1011.73 1012.18 1012.58 1012.92 1013.22 1013.52 1013.82 1014.13 1014.46 1014.77 1015.07 1015.33 1015.55 1015.74 1015.91 1016.09 1016.29 1016.53 1016.82 1017.13 1017.43 1017.71 1017.93 1018.06 1018.12 1018.11 1018.04 1017.93 1017.82 1017.70 1017.59 1017.47 1017.35 1017.21 1017.06 1016.91 1016.80 1016.73
1008.94 1009.22 1009.64 1010.16 1010.74 1011.33 1011.88 1012.38 1012.81 1013.18 1013.50 1013.79 1014.06 1014.33 1014.59 1014.85 1015.09 1015.32 1015.55 1015.78 1016.04 1016.33 1016.64 1016.98 1017.33 1017.66 1017.94 1018.15 1018.29 1018.34 1018.33 1018.26 1018.17 1018.06 1017.95 1017.84 1017.72 1017.58 1017.43 1017.28 1017.13 1017.01 1016.95
1008.41 1008.62 1009.01 1009.56 1010.19 1010.86 1011.51 1012.11 1012.63 1013.06 1013.41 1013.69 1013.94 1014.16 1014.37 1014.59 1014.82 1015.06 1015.33 1015.63 1015.96 1016.32 1016.70 1017.08 1017.46 1017.79 1018.08 1018.29 1018.42 1018.49 1018.49 1018.45 1018.38 1018.30 1018.21 1018.11 1017.99 1017.85 1017.69 1017.53 1017.37 1017.25 1017.18
1007.88 1008.03 1008.40 1008.95 1009.63 1010.38 1011.12 1011.81 1012.40 1012.89 1013.27 1013.56 1013.78 1013.96 1014.13 1014.32 1014.54 1014.80 1015.10 1015.45 1015.83 1016.23 1016.65 1017.06 1017.45 1017.79 1018.07 1018.28 1018.43 1018.52 1018.56 1018.57 1018.55 1018.51 1018.46 1018.39 1018.28 1018.15 1017.98 1017.81 1017.64 1017.50 1017.42
1007.44 1007.54 1007.88 1008.44 1009.16 1009.96 1010.78 1011.54 1012.20 1012.73 1013.13 1013.41 1013.61 1013.76 1013.90 1014.07 1014.28 1014.54 1014.86 1015.23 1015.63 1016.06 1016.49 1016.90 1017.28 1017.61 1017.89 1018.11 1018.29 1018.42 1018.51 1018.59 1018.64 1018.68 1018.68 1018.65 1018.58 1018.46 1018.30 1018.11 1017.92 1017.77 1017.67
1007.17 1007.23 1007.56 1008.13 1008.87 1009.70 1010.56 1011.37 1012.06 1012.62 1013.02 1013.30 1013.47 1013.60 1013.71 1013.86 1014.05 1014.30 1014.62 1014.99 1015.39 1015.81 1016.22 1016.61 1016.97 1017.28 1017.55 1017.79 1018.00 1018.18 1018.35 1018.50 1018.64 1018.76 1018.84 1018.87 1018.83 1018.74 1018.58 1018.39 1018.19 1018.02 1017.89
1007.16 1007.20 1007.52 1008.08 1008.82 1009.67 1010.54 1011.35 1012.05 1012.60 1012.99 1013.24 1013.39 1013.49 1013.58 1013.69 1013.87 1014.10 1014.40 1014.75 1015.13 1015.51 1015.89 1016.24 1016.56 1016.84 1017.11 1017.35 1017.59 1017.82 1018.06 1018.30 1018.53 1018.73 1018.88 1018.97 1018.98 1018.92 1018.78 1018.60 1018.39 1018.20 1018.06
1007.43 1007.47 1007.77 1008.32 1009.05 1009.87 1010.71 1011.49 1012.15 1012.66 1013.01 1013.23 1013.35 1013.42 1013.48 1013.58 1013.74 1013.95 1014.23 1014.55 1014.88 1015.22 1015.54 1015.84 1016.12 1016.37 1016.62 1016.86 1017.12 1017.39 1017.68 1017.98 1018.27 1018.54 1018.76 1018.91 1018.98 1018.95 1018.85 1018.68 1018.48 1018.29 1018.13
1007.96 1008.00 1008.29 1008.81 1009.49 1010.26 1011.03 1011.74 1012.33 1012.77 1013.07 1013.24 1013.32 1013.37 1013.42 1013.50 1013.64 1013.84 1014.10 1014.38 1014.67 1014.96 1015.24 1015.48 1015.71 1015.93 1016.15 1016.38 1016.64 1016.92 1017.23 1017.56 1017.89 1018.20 1018.46 1018.66 1018.77 1018.79 1018.72 1018.59 1018.42 1018.24 1018.09
Thickness
5796 5798 5798 5795 5793 5790 5788 5785 5782 5780 5778 5775 5773 5771 5769 5767 5765 5764 5762 5762 5762 5762 5762 5761 5761 5762 5762 5763 5764 5765 5766 5767 5767 5769 5770 5771 5773 5775 5776 5778 5780 5782 5783
5802 5800 5799 5795 5792 5790 5788 5785 5782 5780 5777 5775 5772 5770 5768 5767 5765 5764 5762 5761 5760 5760 5760 5759 5759 5759 5759 5760 5761 5762 5763 5764 5765 5765 5766 5768 5770 5772 5773 5775 5777 5778 5779
5804 5802 5799 5796 5792 5790 5788 5786 5783 5781 5778 5775 5772 5770 5768 5766 5765 5763 5762 5761 5759 5758 5758 5757 5757 5756 5756 5757 5758 5760 5761 5761 5761 5762 5762 5764 5766 5768 5770 5771 5772 5773 5774
5806 5803 5800 5796 5793 5790 5788 5786 5783 5781 5778 5775 5772 5769 5767 5765 5764 5763 5762 5760 5758 5756 5755 5754 5754 5754 5753 5754 5757 5758 5758 5758 5759 5759 5759 5761 5763 5765 5767 5768 5768 5769 5770
5804 5802 5799 5796 5793 5790 5788 5785 5783 5781 5778 5774 5771 5768 5765 5763 5762 5761 5760 5758 5756 5755 5753 5752 5752 5751 5751 5752 5754 5756 5757 5757 5757 5757 5757 5758 5760 5762 5764 5765 5766 5765 5766
5802 5800 5798 5796 5793 5790 5788 5785 5783 5780 5778 5775 5772 5768 5765 5762 5761 5760 5758 5756 5754 5753 5751 5750 5749 5748 5748 5748 5750 5753 5755 5756 5755 5755 5756 5757 5758 5760 5761 5762 5762 5763 5763
5800 5799 5797 5794 5792 5790 5788 5785 5783 5780 5778 5776 5772 5769 5765 5762 5760 5758 5756 5754 5753 5752 5750 5747 5747 5746 5745 5745 5747 5749 5752 5753 5753 5754 5755 5756 5757 5759 5760 5760 5760 5760 5761
5800 5798 5796 5794 5792 5789 5787 5785 5782 5780 5778 5775 5772 5768 5765 5762 5760 5757 5755 5753 5751 5750 5748 5745 5744 5744 5743 5743 5744 5747 5749 5750 5751 5752 5753 5754 5755 5756 5757 5758 5759 5759 5759
5799 5798 5796 5795 5792 5790 5787 5784 5782 5780 5777 5775 5771 5767 5764 5761 5759 5756 5753 5751 5748 5746 5745 5743 5741 5741 5741 5741 5742 5745 5748 5749 5749 5749 5750 5751 5753 5753 5754 5755 5757 5757 5758
5797 5796 5795 5794 5792 5790 5787 5784 5781 5779 5777 5775 5771 5767 5764 5761 5758 5756 5753 5749 5746 5743 5741 5740 5739 5738 5739 5739 5739 5741 5743 5745 5747 5746 5747 5749 5751 5751 5752 5753 5754 5755 5756
5794 5794 5793 5792 5790 5788 5786 5784 5781 5778 5776 5774 5771 5767 5764 5761 5758 5755 5751 5748 5745 5742 5740 5738 5737 5736 5736 5736 5737 5737 5738 5739 5742 5744 5745 5748 5749 5750 5751 5752 5752 5753 5755
5791 5791 5791 5790 5789 5787 5785 5783 5780 5777 5775 5772 5769 5766 5762 5759 5756 5753 5750 5748 5744 5741 5739 5737 5736 5735 5734 5733 5734 5735 5736 5737 5738 5741 5744 5746 5747 5748 5749 5750 5750 5750 5752
5793 5791 5790 5789 5788 5786 5784 5782 5779 5776 5772 5768 5766 5764 5761 5758 5754 5751 5748 5746 5744 5741 5738 5736 5735 5733 5733 5732 5732 5732 5733 5735 5735 5737 5740 5743 5745 5747 5748 5748 5748 5748 5749
5792 5790 5789 5788 5785 5784 5782 5780 5777 5774 5770 5767 5764 5762 5760 5757 5753 5750 5747 5746 5743 5740 5738 5735 5733 5732 5730 5730 5730 5730 5730 5731 5732 5732 5734 5738 5742 5745 5746 5746 5746 5747 5747
5793 5790 5788 5786 5783 5781 5780 5777 5775 5772 5769 5766 5763 5761 5759 5755 5752 5749 5746 5744 5741 5738 5736 5734 5732 5731 5727 5726 5727 5727 5726 5727 5728 5730 5730 5732 5736 5740 5742 5744 5745 5744 5745
5795 5792 5790 5786 5782 5779 5777 5776 5774 5770 5768 5765 5762 5759 5757 5753 5749 5747 5744 5741 5738 5735 5734 5732 5729 5728 5726 5723 5723 5723 5723 5722 5723 5725 5726 5727 5728 5732 5736 5739 5741 5742 5742
5794 5794 5791 5788 5783 5778 5775 5773 5771 5768 5765 5762 5759 5756 5753 5750 5747 5745 5742 5738 5735 5732 5729 5728 5724 5722 5722 5720 5719 5719 5718 5718 5718 5720 5721 5720 5721 5723 5728 5733 5736 5737 5737
5794 5791 5789 5789 5783 5777 5773 5769 5767 5764 5762 5759 5756 5753 5751 5748 5745 5743 5740 5737 5733 5729 5726 5723 5719 5715 5714 5714 5713 5713 5713 5712 5713 5714 5714 5714 5714 5716 5720 5725 5729 5731 5731
5795 5792 5786 5786 5783 5778 5773 5769 5765 5762 5759 5757 5754 5750 5747 5745 5742 5740 5736 5733 5729 5726 5722 5720 5715 5712 5708 5706 5706 5705 5705 5705 5706 5708 5709 5708 5708 5709 5712 5715 5719 5723 5724
5796 5794 5787 5782 5781 5777 5771 5765 5761 5758 5756 5754 5751 5747 5744 5742 5739 5736 5733 5729 5725 5722 5718 5715 5710 5708 5706 5702 5701 5697 5696 5698 5699 5700 5702 5703 5702 5703 5705 5707 5710 5713 5716
5795 5792 5788 5780 5776 5772 5766 5758 5753 5752 5751 5749 5747 5743 5740 5737 5736 5732 5729 5726 5722 5719 5716 5712 5706 5703 5701 5699 5694 5690 5689 5691 5692 5693 5695 5697 5697 5697 5698 5701 5703 5705 5709
5792 5791 5787 5781 5774 5769 5763 5757 5752 5751 5748 5746 5744 5740 5736 5734 5732 5729 5725 5722 5718 5714 5710 5706 5702 5698 5695 5693 5688 5682 5678 5679 5685 5688 5689 5690 5691 5691 5693 5695 5697 5699 5702
5785 5784 5782 5777 5768 5758 5751 5746 5744 5743 5742 5739 5737 5735 5733 5730 5728 5725 5722 5719 5714 5710 5706 5703 5700 5695 5688 5686 5686 5680 5672 5668 5673 5679 5682 5684 5685 5686 5688 5690 5692 5693 5696
5776 5776 5774 5770 5762 5751 5741 5736 5735 5733 5732 5733 5731 5730 5728 5725 5722 5720 5718 5715 5710 5707 5703 5700 5697 5692 5687 5681 5679 5678 5675 5672 5667 5667 5674 5678 5679 5681 5683 5685 5687 5689 5691
5764 5764 5763 5761 5756 5745 5735 5730 5727 5727 5727 5727 5725 5724 5722 5721 5719 5716 5715 5712 5708 5705 5701 5697 5693 5688 5684 5680 5677 5673 5671 5668 5666 5663 5664 5670 5673 5676 5678 5680 5683 5686 5688
5747 5749 5750 5749 5746 5737 5729 5725 5721 5719 5720 5719 5718 5717 5718 5717 5715 5713 5711 5708 5705 5701 5697 5694 5690 5685 5681 5678 5676 5674 5674 5670 5666 5663 5663 5664 5666 5671 5675 5677 5679 5683 5686